CW9648 Weather Reports


Display with metric or nautical units.
time (UTC)temp
F
wind
direction
speed
MPH
gust
MPH
rain 1hr
in
rain 24hr
in
rain mn
in
humidity
%
barometer
mb
20260902215004 77 232 3.0 8.0 0.11 2.24 2.24 42 1015.4
20260902214504 78 243 1.0 7.0 0.29 2.24 2.24 42 1015.3
20260902214004 78 101 1.0 2.0 0.39 2.23 2.23 42 1014.7
20260902213504 78 108 1.0 2.0 0.44 2.23 2.23 42 1014.9
20260902213004 78 132 1.0 3.0 0.54 2.23 2.23 42 1015.0
20260902212504 78 135 1.0 3.0 0.63 2.23 2.23 42 1014.8
20260902212004 78 119 1.0 4.0 0.63 2.23 2.23 42 1014.9
20260902211504 78 92 2.0 5.0 0.62 2.22 2.22 42 1015.0
20260902211004 78 110 3.0 5.0 0.62 2.22 2.22 42 1015.2
20260902210504 77 148 2.0 6.0 0.61 2.21 2.21 42 1015.5
20260902210004 77 149 2.0 6.0 0.60 2.19 2.19 42 1015.4
20260902205504 77 125 2.0 7.0 0.58 2.17 2.17 42 1015.2
20260902205004 77 116 2.0 7.0 0.54 2.13 2.13 42 1015.0
20260902204504 77 1 2.0 4.0 0.36 1.95 1.95 42 1015.2
20260902204025 77 319 2.0 7.0 0.25 1.84 1.84 42 1015.2
20260902203504 78 232 2.0 7.0 0.20 1.79 1.79 42 1015.4
20260902203004 78 240 3.0 7.0 0.10 1.69 1.69 42 1015.4
20260902202504 78 210 4.0 8.0 0.01 1.60 1.60 42 1015.5
20260902202004 78 164 3.0 8.0 0.01 1.60 1.60 42 1015.1
20260902201504 78 148 2.0 7.0 0.02 1.60 1.60 42 1015.1
20260902201004 78 137 2.0 7.0 0.02 1.60 1.60 42 1015.1
20260902200504 78 128 1.0 5.0 0.02 1.60 1.60 42 1015.1
20260902200025 78 119 2.0 5.0 0.01 1.59 1.59 42 1015.1
20260902195504 78 92 1.0 5.0 0.01 1.59 1.59 42 1015.3
20260902195004 78 93 1.0 3.0 0.01 1.59 1.59 42 1015.3
20260902194504 78 101 1.0 3.0 0.02 1.59 1.59 42 1015.4
20260902194004 78 96 1.0 3.0 0.02 1.59 1.59 42 1015.4
20260902193504 78 93 1.0 3.0 0.03 1.59 1.59 42 1015.4
20260902193004 78 108 2.0 3.0 0.03 1.59 1.59 42 1015.4
20260902192504 78 139 1.0 5.0 0.04 1.59 1.59 42 1015.4
20260902192004 77 160 1.0 5.0 0.05 1.59 1.59 42 1015.4
20260902191504 77 145 1.0 4.0 0.04 1.58 1.58 42 1015.3
20260902191004 77 120 1.0 3.0 0.05 1.58 1.58 42 1015.3
20260902190504 77 151 2.0 5.0 0.05 1.58 1.58 42 1015.3
20260902190004 77 173 2.0 6.0 0.05 1.58 1.58 43 1015.4
20260902185504 77 164 1.0 6.0 0.05 1.58 1.58 42 1015.4
20260902185004 77 157 1.0 5.0 0.05 1.58 1.58 42 1015.6
20260902184504 77 156 2.0 5.0 0.04 1.57 1.57 43 1015.7
20260902184004 77 158 2.0 6.0 0.05 1.57 1.57 43 1015.8
20260902183504 77 156 2.0 6.0 0.04 1.56 1.56 43 1015.9
20260902183025 77 166 2.0 4.0 0.04 1.56 1.56 43 1016.0
20260902182504 77 185 2.0 4.0 0.03 1.55 1.55 43 1016.1
20260902182004 77 142 2.0 3.0 0.03 1.54 1.54 43 1016.0
20260902181504 77 121 2.0 4.0 0.03 1.54 1.54 43 1015.8
20260902181004 77 139 2.0 5.0 0.03 1.53 1.53 43 1015.9
20260902180503 77 129 2.0 5.0 0.03 1.53 1.53 43 1016.0
20260902180006 77 118 1.0 6.0 0.04 1.53 1.53 43 1016.0
20260902175503 77 142 1.0 6.0 0.04 1.53 1.53 43 1016.0
20260902175004 77 158 1.0 4.0 0.05 1.53 1.53 43 1016.1
20260902174504 77 148 1.0 3.0 0.05 1.53 1.53 43 1016.0
20260902174004 77 157 1.0 4.0 0.05 1.52 1.52 43 1016.1
20260902173504 77 168 2.0 4.0 0.05 1.52 1.52 43 1016.1
20260902173003 76 160 2.0 5.0 0.06 1.52 1.52 43 1016.2
20260902172504 76 167 2.0 8.0 0.07 1.52 1.52 43 1016.2
20260902172025 76 188 2.0 8.0 0.06 1.51 1.51 43 1016.1
20260902171503 76 190 2.0 8.0 0.08 1.51 1.51 43 1016.2
20260902171003 75 177 2.0 11.0 0.08 1.50 1.50 43 1016.1
20260902170504 75 180 2.0 11.0 0.09 1.50 1.50 44 1016.1
20260902170004 74 180 2.0 5.0 0.09 1.49 1.49 45 1016.1
20260902165504 74 173 2.0 5.0 0.10 1.49 1.49 45 1016.2
20260902165025 74 194 3.0 8.0 0.10 1.48 1.49 45 1016.2
20260902164504 74 202 4.0 14.0 0.11 1.48 1.48 46 1016.3
20260902164004 74 201 5.0 14.0 0.12 1.47 1.47 46 1016.4
20260902163504 74 198 4.0 13.0 0.13 1.47 1.47 45 1016.4
20260902163004 74 191 4.0 11.0 0.14 1.46 1.46 45 1016.5
20260902162504 75 191 4.0 11.0 0.14 1.45 1.45 44 1016.4
20260902162004 75 188 4.0 9.0 0.15 1.45 1.45 44 1016.3
20260902161504 75 198 4.0 10.0 0.14 1.43 1.43 44 1016.2
20260902161004 75 207 5.0 11.0 0.15 1.42 1.42 44 1016.2
20260902160504 75 207 4.0 11.0 0.15 1.41 1.41 44 1016.1
20260902160006 75 196 5.0 11.0 0.15 1.40 1.40 44 1016.2
20260902155504 75 187 5.0 11.0 0.16 1.39 1.39 44 1016.3
20260902155004 75 187 4.0 11.0 0.16 1.38 1.38 43 1016.1
20260902154506 75 185 4.0 11.0 0.16 1.37 1.37 43 1016.3
20260902154004 75 186 4.0 14.0 0.15 1.35 1.35 43 1016.4
20260902153504 75 195 4.0 14.0 0.16 1.34 1.34 44 1016.4
20260902153004 75 186 4.0 10.0 0.15 1.32 1.32 44 1016.3
20260902152504 75 182 4.0 11.0 0.15 1.31 1.31 44 1016.2
20260902152004 75 187 4.0 11.0 0.16 1.30 1.30 44 1016.1
20260902151504 75 193 3.0 11.0 0.15 1.29 1.29 44 1015.8
20260902151004 75 181 4.0 11.0 0.15 1.27 1.27 44 1015.8
20260902150504 76 176 5.0 11.0 0.15 1.26 1.26 44 1015.6
20260902150025 76 182 4.0 11.0 0.16 1.25 1.25 43 1015.7
20260902145504 76 184 4.0 10.0 0.15 1.23 1.23 43 1015.8
20260902145004 76 189 4.0 10.0 0.16 1.22 1.22 43 1015.7
20260902144504 76 180 4.0 10.0 0.16 1.21 1.21 43 1015.7
20260902144004 76 172 5.0 10.0 0.16 1.20 1.20 43 1015.5
20260902143504 76 172 5.0 10.0 0.16 1.18 1.18 43 1015.6
20260902143004 76 171 5.0 11.0 0.17 1.17 1.17 43 1015.6
20260902142504 76 166 5.0 11.0 0.18 1.16 1.16 43 1015.7
20260902142004 76 162 3.0 10.0 0.18 1.14 1.14 43 1015.5
20260902141504 76 158 3.0 6.0 0.20 1.14 1.14 43 1015.7
20260902141004 76 160 3.0 8.0 0.20 1.12 1.12 43 1015.6
20260902140503 76 158 4.0 9.0 0.21 1.11 1.11 43 1015.4
20260902140004 76 159 5.0 10.0 0.21 1.09 1.09 43 1015.1
20260902135525 76 165 4.0 10.0 0.21 1.08 1.08 43 1015.0
20260902135004 76 179 4.0 10.0 0.21 1.06 1.06 43 1014.7
20260902134504 76 179 3.0 9.0 0.22 1.05 1.05 43 1014.6
20260902134006 76 171 4.0 9.0 0.23 1.04 1.04 43 1014.5
20260902133504 76 171 4.0 9.0 0.22 1.02 1.02 43 1014.6
20260902133004 76 174 4.0 13.0 0.22 1.00 1.00 43 1014.6
20260902132525 76 167 5.0 13.0 0.22 0.98 0.98 43 1014.8
20260902132025 75 169 4.0 10.0 0.22 0.96 0.96 43 1014.7
20260902131525 75 171 3.0 9.0 0.22 0.94 0.94 43 1014.8
20260902131004 75 167 4.0 9.0 0.22 0.92 0.92 43 1014.9
20260902130524 75 158 3.0 9.0 0.22 0.90 0.91 43 1014.8
20260902130025 75 144 2.0 9.0 0.21 0.88 0.89 43 1014.8
20260902125504 75 153 3.0 10.0 0.22 0.87 0.87 43 1014.8
20260902125003 75 161 4.0 10.0 0.21 0.85 0.85 43 1014.8
20260902124504 75 154 4.0 7.0 0.20 0.83 0.83 44 1014.8
20260902124003 75 143 3.0 10.0 0.20 0.81 0.81 44 1014.8
20260902123503 75 139 3.0 10.0 0.20 0.80 0.80 44 1014.6
20260902123024 75 153 3.0 9.0 0.20 0.78 0.78 44 1014.6
20260902122525 75 160 3.0 7.0 0.19 0.76 0.77 44 1014.8
20260902122004 75 159 3.0 9.0 0.19 0.74 0.74 44 1014.6
20260902121503 75 163 4.0 9.0 0.18 0.72 0.72 44 1014.6
20260902121003 75 167 4.0 9.0 0.17 0.70 0.70 44 1014.5
20260902120524 75 163 4.0 10.0 0.16 0.68 0.68 44 1014.5
20260902120004 75 162 4.0 10.0 0.17 0.67 0.67 44 1014.3
20260902115527 75 159 3.0 7.0 0.17 0.65 0.65 44 1014.5
20260902115024 75 156 2.0 6.0 0.17 0.64 0.64 44 1014.5
20260902114503 75 157 4.0 11.0 0.18 0.63 0.63 44 1014.5
20260902114004 75 151 3.0 11.0 0.18 0.61 0.61 44 1014.5
20260902113503 75 157 3.0 12.0 0.18 0.60 0.60 44 1014.5
20260902113024 75 159 4.0 12.0 0.19 0.58 0.59 44 1014.5
20260902112503 75 157 4.0 12.0 0.21 0.57 0.57 44 1014.5
20260902112004 75 162 3.0 10.0 0.22 0.55 0.55 44 1014.5
20260902111504 76 171 3.0 10.0 0.23 0.54 0.54 44 1014.5
20260902111024 76 167 3.0 6.0 0.24 0.53 0.53 44 1014.5
20260902110504 76 165 3.0 7.0 0.24 0.52 0.52 44 1014.6
20260902110005 76 175 2.0 7.0 0.24 0.50 0.50 44 1014.8
20260902105525 76 175 2.0 6.0 0.24 0.48 0.48 44 1014.7
20260902105003 76 177 2.0 9.0 0.26 0.47 0.47 44 1014.6
20260902104504 76 173 2.0 9.0 0.27 0.45 0.45 44 1014.6
20260902104004 76 175 3.0 8.0 0.26 0.43 0.43 44 1014.7
20260902103503 77 179 3.0 6.0 0.25 0.42 0.42 43 1014.7
20260902103024 77 178 2.0 6.0 0.23 0.39 0.39 43 1014.7
20260902102503 77 203 1.0 4.0 0.21 0.36 0.36 43 1014.7
20260902102003 77 229 1.0 3.0 0.19 0.33 0.33 44 1014.6
20260902101503 77 204 1.0 4.0 0.18 0.31 0.31 44 1014.5
20260902101003 77 192 2.0 6.0 0.17 0.29 0.29 44 1014.5
20260902100503 77 184 2.0 7.0 0.17 0.28 0.28 44 1014.6
20260902100024 78 188 3.0 7.0 0.15 0.26 0.26 43 1014.6
20260902095503 78 178 2.0 6.0 0.14 0.24 0.24 43 1014.6
20260902095024 78 149 2.0 6.0 0.11 0.21 0.22 43 1014.6
20260902094503 78 102 1.0 3.0 0.08 0.18 0.18 43 1014.4
20260902094003 78 55 1.0 4.0 0.07 0.17 0.17 43 1014.4
20260902093504 78 60 2.0 6.0 0.07 0.17 0.17 43 1014.4
20260902093003 78 59 2.0 6.0 0.06 0.16 0.16 43 1014.5
20260902092024 78 120 1.0 5.0 0.04 0.14 0.14 44 1014.6
20260902091503 78 109 1.0 3.0 0.03 0.13 0.13 43 1014.6
20260902091003 78 123 1.0 8.0 0.03 0.12 0.12 43 1014.6
20260902090503 78 131 1.0 8.0 0.02 0.11 0.11 43 1014.7
20260902090025 78 111 1.0 5.0 0.02 0.11 0.11 43 1014.8
20260902085524 78 110 2.0 8.0 0.02 0.10 0.10 43 1014.8
20260902085003 78 98 1.0 8.0 0.02 0.10 0.10 43 1014.8
20260902084503 78 95 1.0 4.0 0.03 0.10 0.10 43 1014.8
20260902084004 78 114 0.0 4.0 0.03 0.10 0.10 43 1014.9
20260902083503 78 105 0.0 3.0 0.04 0.10 0.10 44 1015.0
20260902083004 77 82 0.0 3.0 0.04 0.10 0.10 44 1014.9
20260902082503 77 0 0.0 0.0 0.04 0.10 0.10 44 1014.8
20260902082003 77 118 0.0 3.0 0.04 0.10 0.10 44 1014.7
20260902081503 77 90 0.0 3.0 0.04 0.10 0.10 44 1014.8
20260902081024 77 76 1.0 3.0 0.03 0.09 0.09 45 1014.8
20260902080503 77 57 1.0 2.0 0.03 0.09 0.09 45 1015.0
20260902080003 77 31 1.0 3.0 0.03 0.09 0.09 46 1015.1
20260902075503 77 112 1.0 4.0 0.02 0.08 0.08 46 1015.1
20260902075003 77 158 1.0 4.0 0.02 0.08 0.08 47 1015.3
20260902074524 77 168 1.0 2.0 0.01 0.07 0.07 47 1015.2
20260902074003 77 146 1.0 3.0 0.01 0.07 0.07 48 1015.1
20260902073503 77 151 1.0 4.0 0.00 0.06 0.06 48 1015.2
20260902073003 77 145 1.0 4.0 0.00 0.06 0.06 48 1015.1
20260902072503 77 137 1.0 4.0 0.00 0.06 0.06 47 1015.1
20260902072003 77 153 1.0 4.0 0.00 0.06 0.06 47 1015.0
20260902071503 77 156 2.0 7.0 0.00 0.06 0.06 47 1015.1
20260902071003 77 150 2.0 7.0 0.00 0.06 0.06 47 1015.1
20260902070504 78 141 1.0 4.0 0.01 0.06 0.06 46 1015.1
20260902070004 78 120 1.0 4.0 0.01 0.06 0.06 46 1015.1
20260902065503 78 91 1.0 4.0 0.01 0.06 0.06 45 1015.1
20260902065003 78 80 1.0 5.0 0.01 0.06 0.06 45 1015.2
20260902064503 78 66 1.0 5.0 0.01 0.06 0.06 45 1015.3
20260902064003 78 54 1.0 3.0 0.02 0.06 0.06 45 1015.4
20260902063524 78 59 0.0 2.0 0.02 0.06 0.06 45 1015.4
20260902063003 78 58 0.0 2.0 0.02 0.06 0.06 46 1015.3
20260902062503 77 117 0.0 2.0 0.03 0.06 0.06 46 1015.2
20260902062003 77 78 1.0 2.0 0.04 0.06 0.06 47 1015.3
20260902061524 78 30 1.0 2.0 0.05 0.06 0.06 48 1015.3
20260902061003 78 43 1.0 4.0 0.05 0.06 0.06 48 1015.3
20260902060504 78 55 1.0 4.0 0.05 0.05 0.05 50 1015.4
20260902060003 78 60 1.0 4.0 0.05 0.05 0.05 50 1015.4
20260902055503 78 118 1.0 5.0 0.05 0.05 0.05 51 1015.4
20260902055003 78 156 2.0 6.0 0.05 0.05 0.05 52 1015.5
20260902054503 78 162 1.0 6.0 0.05 0.05 0.05 52 1015.5
20260902054003 78 149 1.0 4.0 0.04 0.04 0.04 53 1015.6
20260902053503 78 135 1.0 6.0 0.04 0.04 0.04 55 1015.6
20260902053003 78 138 1.0 6.0 0.04 0.04 0.04 56 1015.4
20260902052524 79 162 1.0 4.0 0.03 0.03 0.03 59 1015.5
20260902052003 79 176 1.0 4.0 0.02 0.02 0.02 62 1015.4
20260902051503 80 157 0.0 2.0 0.01 0.01 0.01 64 1015.5
20260902051003 80 133 1.0 4.0 0.01 0.01 0.01 67 1015.4
20260902050504 80 135 1.0 4.0 0.00 0.00 0.00 70 1015.5
20260902050005 81 129 2.0 4.0 0.00 0.00 0.00 72 1015.6
20260902045503 81 125 2.0 4.0 0.00 0.00 0.00 73 1015.5
20260902045003 81 125 1.0 3.0 0.00 0.00 0.00 73 1015.6
20260902044503 81 100 1.0 2.0 0.00 0.00 0.00 74 1015.6
20260902044003 81 100 1.0 3.0 0.00 0.00 0.00 74 1015.4
20260902043503 81 80 1.0 4.0 0.00 0.00 0.00 74 1015.3
20260902043003 81 79 1.0 4.0 0.00 0.00 0.00 74 1015.1
20260902042503 81 88 1.0 4.0 0.00 0.00 0.00 74 1015.1
20260902042003 81 61 0.0 4.0 0.00 0.00 0.00 74 1015.1
20260902041503 81 74 0.0 2.0 0.00 0.00 0.00 74 1015.2
20260902041003 81 57 1.0 3.0 0.00 0.00 0.00 74 1015.3
20260902040503 81 74 2.0 6.0 0.00 0.00 0.00 75 1015.3
20260902040024 81 92 2.0 6.0 0.00 0.00 0.00 75 1015.5
20260902035503 81 112 1.0 5.0 0.00 0.00 0.00 76 1015.5
20260902035003 81 93 1.0 4.0 0.00 0.00 0.00 76 1015.3
20260902034524 81 93 1.0 4.0 0.00 0.00 0.00 76 1015.4
20260902034003 81 112 1.0 4.0 0.00 0.00 0.00 77 1015.2
20260902033503 81 95 1.0 3.0 0.00 0.00 0.00 77 1015.2
20260902033024 81 134 1.0 7.0 0.00 0.00 0.00 77 1015.2
20260902032503 81 126 1.0 7.0 0.00 0.00 0.00 77 1015.2
20260902032003 81 61 1.0 4.0 0.00 0.00 0.00 77 1015.2
20260902031503 81 61 1.0 4.0 0.00 0.00 0.00 77 1015.0
20260902031024 81 70 2.0 4.0 0.00 0.00 0.00 77 1015.1
20260902030503 81 74 2.0 3.0 0.00 0.00 0.00 78 1015.0
20260902030003 81 105 2.0 5.0 0.00 0.00 0.00 78 1015.1
20260902025503 81 88 2.0 5.0 0.00 0.00 0.00 78 1015.2
20260902025024 81 65 1.0 4.0 0.00 0.00 0.00 78 1015.1
20260902024503 81 78 1.0 4.0 0.00 0.00 0.00 78 1015.0
20260902024003 81 48 1.0 3.0 0.00 0.00 0.00 78 1015.0
20260902023503 81 57 0.0 3.0 0.00 0.00 0.00 78 1014.9
20260902023003 81 60 0.0 2.0 0.00 0.00 0.00 78 1014.8
20260902022504 81 84 1.0 4.0 0.00 0.00 0.00 78 1014.8
20260902022004 82 83 2.0 6.0 0.00 0.00 0.00 78 1014.7
20260902021525 82 85 1.0 6.0 0.00 0.00 0.00 78 1014.7
20260902021025 82 149 1.0 3.0 0.00 0.00 0.00 78 1014.7
20260902020504 82 169 1.0 2.0 0.00 0.00 0.00 78 1014.7
20260902020004 82 64 0.0 2.0 0.00 0.00 0.00 78 1014.7
20260902015525 82 56 1.0 4.0 0.00 0.00 0.00 78 1014.6
20260902015004 82 83 1.0 4.0 0.00 0.00 0.00 78 1014.5
20260902014504 82 74 1.0 3.0 0.00 0.00 0.00 78 1014.5
20260902014025 82 67 1.0 3.0 0.00 0.00 0.00 78 1014.4
20260902013504 82 73 1.0 3.0 0.00 0.00 0.00 78 1014.5
20260902013025 82 123 1.0 3.0 0.00 0.00 0.00 78 1014.6
20260902012504 82 135 1.0 3.0 0.00 0.00 0.00 78 1014.5
20260902012025 82 123 1.0 4.0 0.00 0.00 0.00 78 1014.4
20260902011504 82 96 1.0 4.0 0.00 0.00 0.00 78 1014.3
20260902011004 82 87 1.0 3.0 0.00 0.00 0.00 78 1014.2
20260902010504 82 80 1.0 4.0 0.00 0.00 0.00 78 1014.1
20260902010025 82 61 1.0 4.0 0.00 0.00 0.00 78 1014.0
20260902005525 83 60 1.0 3.0 0.00 0.00 0.00 77 1013.9
20260902005004 83 46 1.0 4.0 0.00 0.00 0.00 77 1014.0
20260902004504 83 48 2.0 7.0 0.00 0.00 0.00 77 1014.1
20260902004004 83 58 1.0 7.0 0.00 0.00 0.00 76 1014.2
20260902003504 84 71 1.0 6.0 0.00 0.00 0.00 76 1014.4
20260902003004 84 72 1.0 6.0 0.00 0.00 0.00 76 1014.4
20260902002504 84 57 1.0 5.0 0.00 0.00 0.00 76 1014.5
20260902002004 84 21 1.0 3.0 0.00 0.00 0.00 76 1014.5
20260902001525 84 38 1.0 3.0 0.00 0.00 0.00 76 1014.5
20260902001004 85 112 0.0 2.0 0.00 0.00 0.00 75 1014.6
20260902000504 85 83 0.0 2.0 0.00 0.00 0.00 75 1014.7
20260902000025 85 60 1.0 3.0 0.00 0.00 0.00 75 1014.7
20260901235504 85 116 2.0 6.0 0.00 0.00 0.00 74 1014.6
20260901235025 85 124 2.0 6.0 0.00 0.00 0.00 74 1014.7
20260901234504 85 90 1.0 4.0 0.00 0.00 0.00 74 1014.7
20260901234004 85 76 1.0 4.0 0.00 0.00 0.00 74 1014.8
20260901233504 86 88 1.0 4.0 0.00 0.00 0.00 74 1014.7
20260901233004 86 119 1.0 4.0 0.00 0.00 0.00 73 1014.7
20260901232504 86 82 1.0 3.0 0.00 0.00 0.00 73 1014.7
20260901232004 86 65 1.0 3.0 0.00 0.00 0.00 73 1014.8
20260901231504 86 100 2.0 7.0 0.00 0.00 0.00 72 1014.6
20260901231004 86 115 2.0 7.0 0.00 0.00 0.00 73 1014.7
20260901230504 86 89 1.0 4.0 0.00 0.00 0.00 73 1014.7
20260901230004 86 110 2.0 8.0 0.00 0.00 0.00 73 1014.8
20260901225504 86 104 2.0 8.0 0.00 0.00 0.00 72 1014.7
20260901225025 86 86 2.0 5.0 0.00 0.00 0.00 72 1014.7
20260901224504 86 112 2.0 6.0 0.00 0.00 0.00 72 1014.9
20260901224004 86 128 2.0 6.0 0.00 0.00 0.00 72 1014.8
20260901223525 86 107 2.0 6.0 0.00 0.00 0.00 72 1014.7
20260901223005 86 82 2.0 6.0 0.00 0.00 0.00 72 1014.7
20260901222525 86 71 2.0 5.0 0.00 0.00 0.00 72 1014.6
20260901222004 86 47 2.0 4.0 0.00 0.00 0.00 72 1014.7
20260901221504 86 61 2.0 4.0 0.00 0.00 0.00 72 1014.7
20260901221004 86 78 1.0 3.0 0.00 0.00 0.00 72 1014.8
20260901220504 86 70 2.0 5.0 0.00 0.00 0.00 71 1014.7
20260901220025 86 102 2.0 13.0 0.00 0.00 0.00 71 1014.9
20260901215504 86 130 2.0 13.0 0.00 0.00 0.00 71 1015.0